This is the latest recevied weather packets stored in our database for station/object KB0Y. If no packets are shown the sender has not sent any weather packets the latest 10 day(s).
| Time | Temp. | Humidity | Pressure | Rain* | Wind** | Luminosity | Snow |
|---|---|---|---|---|---|---|---|
| 1777719858 | 15.56° C | 99% | 1013.5 hPa | 0 mm | - | 0 W/m² | - |
| 1777719555 | 15.56° C | 99% | 1013.5 hPa | 1.78 mm | - | 0 W/m² | - |
| 1777719252 | 15.56° C | 99% | 1013.5 hPa | 0 mm | - | 0 W/m² | - |
| 1777718950 | 15.56° C | 99% | 1013.5 hPa | 3.56 mm | - | 0 W/m² | - |
| 1777718647 | 15.56° C | 99% | 1013.5 hPa | 3.56 mm | - | 0 W/m² | - |
| 1777718344 | 15.56° C | 99% | 1013.5 hPa | 5.33 mm | - | 0 W/m² | - |
| 1777718042 | 15.56° C | 99% | 1013.9 hPa | 3.56 mm | - | 0 W/m² | - |
| 1777717738 | 15.56° C | 99% | 1014.2 hPa | 3.56 mm | - | 0 W/m² | - |
| 1777717435 | 15.56° C | 99% | 1014.5 hPa | 3.56 mm | - | 0 W/m² | - |
| 1777717132 | 15.56° C | 99% | 1014.5 hPa | 1.78 mm | - | 0 W/m² | - |
| 1777716831 | 15.56° C | 99% | 1014.5 hPa | 0 mm | - | 0 W/m² | - |
| 1777716529 | 15.56° C | 99% | 1014.5 hPa | 1.78 mm | - | 0 W/m² | - |
| 1777716228 | 15.56° C | 99% | 1014.5 hPa | 1.78 mm | - | 0 W/m² | - |
| 1777715924 | 15.56° C | 99% | 1014.2 hPa | 0 mm | - | 0 W/m² | - |
| 1777715622 | 15.56° C | 99% | 1014.2 hPa | 0 mm | - | 0 W/m² | - |
| 1777715320 | 15.56° C | 99% | 1013.9 hPa | 0 mm | - | 0 W/m² | - |
| 1777715017 | 15.56° C | 99% | 1013.5 hPa | 0 mm | - | 0 W/m² | - |
| 1777714715 | 15.56° C | 99% | 1013.9 hPa | 0 mm | - | 0 W/m² | - |
| 1777714413 | 15.56° C | 99% | 1013.9 hPa | 0 mm | - | 0 W/m² | - |
| 1777714111 | 15.56° C | 99% | 1014.2 hPa | 0 mm | - | 0 W/m² | - |
| 1777713808 | 15.56° C | 99% | 1014.2 hPa | 0 mm | - | 0 W/m² | - |
| 1777713506 | 15.56° C | 99% | 1013.9 hPa | 0 mm | - | 0 W/m² | - |
| 1777713201 | 15.56° C | 99% | 1013.9 hPa | 0 mm | - | 0 W/m² | - |
| 1777712899 | 15.56° C | 99% | 1013.5 hPa | 0 mm | - | 0 W/m² | - |
| 1777712595 | 15.56° C | 99% | 1013.2 hPa | 0 mm | - | 0 W/m² | - |
* Rain latest hour (hover to see other rain measurements)
** Current wind speed in m/s (hover to see current wind gust speed)